Погода в Палицах

Россия / Псковская область     58°01′43″N   28°40′03″E
темп.,
°C
ветер,
м/с
пор.,
м/с
влажн.,
%
обл.,
%
осадки,
мм/ч
давл.,
гПа
погр.,
м
8 мая, сб
сб800:00+5юв2288100 0.0 100456
03:00+4зюз2396100 0.9 100486
06:00+4зюз3795100 0.6 1003493
09:00+3з499796 0.7 1006498
12:00+5з4875100 0.1 10071133
15:00+7з575799 0.3 10081684
18:00+6зсз577186 0.3 10091106
21:00+3сз39865 0.3 1011444
9 мая, вс
вс900:00+1зсз29915 0.0 1012202
03:000зсз312890 0.0 1014317
06:000з310940 0.0 1016295
09:00+6з46625 0.0 1018665
12:00+10з464616 0.0 10181505
15:00+13з463379 0.0 10192085
18:00+12юз364187 0.0 10192376
21:00+8ю3106580 0.0 1020276
10 мая, пн
пн1000:00+6ю3117367 0.0 1020265
03:00+6ю31285100 0.4 1021639
06:00+7ююз41286100 0.6 1020543
09:00+8ююз41183100 0.6 1021434
12:00+16ююз5858100 0.0 1022792
15:00+19ююз585118 0.0 10221415
18:00+19ююз585748 0.0 10221476
21:00+14ю4127871 0.0 1023399
11 мая, вт
вт1100:00+12ю4138177 0.0 1024493
03:00+10ю31293100 0.0 1025352
06:00+9ю3138611 0.0 1025369
09:00+14ю5115932 0.0 1026652
12:00+18ю694564 0.0 10251118
15:00+20ю694059 0.0 10241372
18:00+20ю484874 0.0 10231273
21:00+13юв3876100 0.0 1024162
12 мая, ср
ср1200:00+12ююв312825 0.0 1024327
03:00+9ююв311895 0.0 1024241
06:00+9юв288966 0.0 1024201
09:00+15ююв365921 0.0 1024514
12:00+20юв354761 0.0 10231085
15:00+22юв46470 0.0 10221372
18:00+22вюв47522 0.0 10211555
21:00+16всв397836 0.0 1020189